Wetbulb
52.03 51.65 51.42 51.60 51.97 52.78 53.64 54.01 53.52 54.99 56.10 56.30 55.66 54.91 54.15 52.93 53.16 50.68 48.54 51.15 49.12 44.72 45.50 47.59 48.01 45.74 46.95 47.29 44.61 47.73 47.81 50.46 49.89 47.13 45.92 45.16 45.33 46.62 46.96 48.13 45.09 45.03 43.46 43.97 44.85 41.77 39.91 57.09 55.92 52.26 54.81 56.91 58.35 58.33
51.78 51.07 50.85 50.52 51.04 52.27 53.47 54.30 54.07 55.05 55.70 55.70 55.43 55.01 53.96 53.39 53.15 51.28 45.94 53.01 53.30 48.26 45.68 49.36 48.85 49.31 48.13 47.99 46.25 47.29 49.17 51.13 51.29 49.25 48.81 48.65 45.20 47.53 45.56 42.53 48.55 44.66 48.29 45.84 46.41 47.13 54.84 56.59 55.45 57.78 57.57 56.31 57.14 57.74
51.26 50.86 50.22 50.22 51.74 52.71 53.49 54.29 54.24 55.02 55.34 55.48 55.29 54.85 54.32 53.83 53.42 50.94 47.77 49.40 50.25 48.05 46.68 46.43 46.52 50.97 52.08 50.53 50.81 44.18 52.16 54.21 51.78 53.55 50.95 48.87 45.90 47.84 44.58 45.48 47.63 49.52 51.38 49.79 48.99 53.56 54.99 55.86 57.23 57.99 58.24 57.67 58.41 59.06
50.96 50.54 50.17 50.81 51.42 51.78 52.84 54.24 54.61 55.08 55.18 55.14 55.23 54.99 54.34 53.60 52.94 51.34 47.78 50.56 49.45 48.36 41.45 44.98 51.99 47.88 52.17 52.98 51.67 51.09 50.38 55.04 53.14 51.19 49.05 48.01 47.58 51.68 47.66 47.71 47.99 50.58 51.39 47.89 49.72 53.66 55.87 54.04 56.08 58.01 59.35 59.63 58.92 58.70
50.75 50.58 50.12 50.64 50.62 51.49 52.49 54.12 54.37 54.96 54.96 55.00 54.77 54.46 53.85 53.44 52.56 51.25 50.23 50.73 52.35 47.58 40.64 41.96 46.28 48.99 52.87 52.42 53.76 54.63 53.03 53.37 50.67 49.01 48.82 48.44 49.28 50.22 51.01 50.10 49.03 51.99 49.40 48.79 46.98 52.31 51.12 50.52 55.77 58.48 56.48 56.39 57.83 56.32
50.74 50.43 50.52 50.08 50.03 51.00 52.20 54.04 54.10 54.64 54.78 54.66 54.37 53.86 53.44 53.11 52.14 48.96 44.21 53.52 52.89 53.22 43.90 38.47 49.04 49.52 52.41 54.77 52.99 52.97 53.55 53.08 52.18 49.72 48.48 50.42 52.44 51.09 45.40 44.79 52.01 53.44 54.18 55.45 53.95 54.68 53.45 53.67 55.59 58.57 56.80 57.39 58.14 56.59
50.16 50.00 50.28 50.10 49.94 50.88 51.95 53.14 53.70 54.14 54.07 53.78 53.23 52.67 52.59 52.45 50.13 47.02 45.65 50.27 50.52 49.98 43.70 41.66 45.19 52.38 52.88 54.21 51.83 51.78 53.15 52.26 51.65 49.52 47.96 48.57 49.18 49.32 47.69 44.73 52.63 54.58 55.28 55.91 56.78 56.27 55.15 55.28 52.72 56.02 57.13 58.59 58.26 59.63
49.29 49.12 49.55 49.98 49.84 50.56 51.60 52.02 53.11 53.58 53.49 53.02 52.36 51.79 51.60 51.20 49.48 46.35 50.47 50.30 50.95 47.55 47.39 41.78 43.53 48.63 55.89 49.52 47.47 51.58 49.39 51.10 51.54 48.81 49.21 47.01 49.09 49.29 43.95 52.57 53.58 53.73 55.10 54.96 56.14 56.41 53.36 55.44 56.38 57.84 59.49 59.54 58.74 58.52
48.51 48.19 48.44 49.36 49.64 50.21 51.45 52.09 53.41 53.07 52.57 52.05 51.67 50.94 49.55 46.47 46.47 51.25 54.04 53.40 52.21 48.19 42.60 45.28 41.04 41.92 52.59 51.46 50.62 50.79 51.61 46.67 51.10 47.39 47.40 47.93 46.90 44.45 50.86 52.50 53.96 54.23 54.76 53.87 54.81 54.79 55.57 55.82 57.00 57.59 58.03 58.75 56.86 56.77
47.79 47.55 47.32 48.28 49.33 49.97 51.59 52.87 52.93 51.79 51.26 50.85 48.16 43.90 42.72 48.48 53.27 52.10 49.01 46.65 44.95 45.79 45.29 41.96 46.80 43.06 49.72 50.26 48.60 50.34 50.63 45.82 44.30 46.91 49.96 46.13 44.69 53.15 54.77 56.00 55.44 54.62 54.37 53.93 50.95 51.45 53.71 55.22 56.30 56.48 56.29 57.38 57.03 55.99
47.35 47.22 47.22 47.82 49.11 50.10 52.22 52.69 51.46 50.32 49.71 46.29 43.54 42.32 50.24 52.66 50.84 48.23 45.02 43.95 44.88 43.52 46.08 45.74 45.25 42.07 49.36 46.35 45.90 50.61 48.85 48.64 43.84 47.51 46.15 45.25 47.18 52.48 55.87 55.16 55.19 54.76 54.75 53.59 54.06 54.13 56.18 57.26 56.26 54.95 56.06 56.36 55.68 55.34
47.12 47.26 46.89 47.23 49.23 50.68 52.58 51.26 49.84 49.08 47.30 45.88 47.29 49.97 51.67 47.58 45.91 43.57 42.89 45.55 44.61 42.99 48.55 46.05 46.32 44.58 46.43 49.68 48.08 51.90 48.18 49.48 45.15 52.67 47.92 44.98 51.34 54.12 54.78 55.36 55.70 55.51 56.96 56.71 58.11 57.22 57.75 58.04 57.60 57.27 56.70 56.09 55.42 55.43
47.03 46.81 46.51 46.77 48.68 50.34 51.78 50.48 50.23 50.47 49.57 48.69 47.91 46.23 45.76 44.60 37.71 39.39 37.85 41.33 43.51 48.59 49.97 48.26 45.59 47.71 51.33 53.26 51.41 49.55 46.30 45.61 51.39 48.11 44.69 49.94 54.69 56.10 55.55 55.81 55.70 56.48 57.43 57.89 57.91 58.29 57.97 57.73 58.01 54.03 53.48 55.49 57.76 56.70
46.85 46.39 46.12 46.09 47.43 49.47 51.33 50.33 50.74 49.49 49.00 43.95 42.32 36.20 40.82 39.79 42.05 42.82 44.12 46.25 49.59 50.70 50.14 49.60 47.65 47.03 49.95 48.93 49.70 43.50 46.24 48.70 44.43 41.88 45.77 51.57 55.07 55.28 55.65 56.39 56.43 56.14 57.30 57.07 57.43 57.89 57.41 56.89 55.14 54.88 55.65 56.76 55.04 56.67
47.09 46.33 45.71 45.64 46.58 48.70 51.18 50.76 50.22 50.65 48.12 44.23 45.38 37.43 40.92 45.65 47.65 48.79 49.76 49.52 51.66 52.66 51.79 48.42 47.78 46.59 46.40 49.36 49.23 47.16 44.78 43.60 45.68 46.16 51.26 54.40 55.96 55.95 56.33 57.18 55.31 56.51 56.40 56.20 56.72 56.51 56.58 55.23 53.50 53.48 53.99 53.44 54.22 56.83
46.50 45.38 44.47 47.38 46.98 49.22 50.56 49.72 49.12 49.15 46.97 45.94 45.71 43.24 45.94 45.82 45.82 47.60 49.52 48.39 52.30 52.81 52.59 49.73 46.42 44.07 45.85 47.01 44.12 43.66 42.15 42.14 47.64 53.50 55.03 56.67 57.11 57.45 57.12 56.83 56.06 56.44 56.41 56.10 56.00 56.61 56.87 56.79 55.84 55.24 54.12 56.97 54.39 56.58
45.51 43.59 46.99 47.78 49.69 49.76 49.53 47.14 46.41 43.93 44.17 43.27 43.25 47.71 46.45 46.27 47.68 49.05 50.69 50.04 54.20 51.55 47.27 47.68 42.54 42.48 47.08 42.99 42.79 46.33 45.48 49.39 53.65 54.74 55.86 58.43 57.48 57.74 56.50 55.05 55.76 55.37 54.82 54.33 54.67 55.21 54.67 55.40 56.21 56.34 54.47 55.77 56.22 56.14
43.66 47.09 48.61 50.10 49.02 48.63 47.56 46.98 44.92 42.75 40.41 43.00 42.12 46.33 48.67 49.70 49.97 49.11 51.88 52.47 51.73 50.43 50.23 47.06 49.86 44.39 42.42 40.93 43.24 48.40 51.79 53.33 56.22 56.07 56.85 58.46 58.84 58.25 57.88 54.97 55.98 55.93 56.25 56.02 56.19 55.45 55.76 55.18 54.22 55.14 55.62 56.23 55.85 55.20
47.27 49.29 49.94 49.77 49.01 47.09 42.98 43.49 45.79 40.71 42.38 45.04 47.25 47.89 48.69 48.90 52.90 53.29 52.81 54.34 54.44 54.40 51.40 49.49 46.00 43.91 45.10 48.07 49.90 50.62 51.83 53.40 53.40 56.30 57.67 58.92 58.22 57.09 56.88 57.32 56.39 57.00 56.79 56.20 56.25 55.87 55.60 55.82 55.97 56.29 56.24 56.16 54.75 55.18
47.53 49.54 49.76 50.15 50.22 46.83 43.27 43.26 47.79 44.35 43.43 46.21 47.41 46.25 47.83 47.94 52.27 52.30 51.18 53.36 52.20 50.46 48.06 47.17 46.32 50.35 50.47 51.52 52.89 52.61 54.07 56.02 55.31 54.32 55.02 56.80 57.81 58.17 57.72 56.92 56.74 55.94 55.26 56.92 57.51 53.22 55.87 55.60 57.55 57.57 56.65 54.91 53.39 53.15
48.24 49.42 49.77 49.84 48.63 48.28 47.35 44.80 43.38 44.82 45.64 46.49 48.92 47.72 47.16 49.61 49.00 49.23 49.73 52.78 50.37 47.71 46.87 50.44 50.61 51.32 53.91 53.90 56.40 53.67 52.75 55.07 56.45 56.02 55.04 54.57 55.04 57.40 57.87 58.53 58.66 57.87 55.81 54.01 54.22 52.89 50.68 54.51 55.72 57.56 56.24 55.44 55.10 54.85
48.30 49.46 47.45 48.12 45.27 46.62 46.34 49.31 46.95 48.42 46.27 47.69 48.88 49.87 47.86 47.52 48.45 50.20 51.12 48.68 47.30 48.84 49.50 51.34 52.10 51.45 51.84 50.73 54.08 55.70 56.05 57.68 57.72 53.85 52.05 52.22 53.16 55.14 55.57 55.55 55.82 52.97 53.38 53.92 54.32 53.84 53.94 56.92 57.14 57.37 56.71 56.65 54.82 55.58
48.74 48.14 45.75 45.25 42.32 41.26 41.57 51.50 45.86 47.47 43.66 45.17 47.75 45.18 45.73 47.31 49.51 51.40 46.16 48.01 48.79 51.09 49.57 50.37 52.07 52.43 51.23 51.83 52.80 57.17 57.67 56.70 55.68 55.72 55.68 54.73 55.37 56.56 56.11 56.10 55.80 54.67 54.08 54.60 55.79 54.98 55.29 51.44 54.00 54.80 56.52 56.23 56.23 54.88
48.80 44.68 41.26 41.39 42.13 38.61 45.47 44.38 47.06 45.52 45.85 43.94 42.83 41.46 44.01 47.11 49.04 47.12 43.65 46.50 50.17 52.76 51.95 48.40 49.21 48.79 49.27 49.79 50.59 56.08 57.79 57.76 55.09 55.87 56.13 56.00 54.52 54.54 55.60 55.74 55.81 55.95 55.98 55.76 55.51 54.64 54.08 55.95 50.94 55.81 55.58 55.69 54.14 53.66
38.39 39.49 40.02 33.95 43.30 40.93 40.84 41.47 42.50 42.51 40.21 41.98 41.57 42.91 45.41 48.32 43.15 42.80 44.01 47.51 48.66 48.65 49.76 52.09 49.68 48.71 47.25 51.78 54.30 56.30 57.79 56.91 54.13 54.65 56.65 56.29 55.14 55.11 54.64 54.37 55.26 56.72 57.53 55.11 54.93 55.35 55.52 56.49 56.00 55.49 55.18 54.37 53.36 53.11
32.47 39.90 36.19 39.79 40.63 40.74 41.95 38.97 39.97 40.73 41.87 41.27 41.96 46.76 47.45 45.35 41.98 41.76 45.91 48.75 49.75 50.96 51.54 52.53 53.08 53.17 53.95 54.73 53.67 55.30 54.31 57.09 57.37 54.50 55.03 56.61 55.57 53.65 53.03 53.11 52.09 53.47 56.55 55.90 54.63 54.72 54.75 54.17 53.94 54.87 53.79 52.99 47.68 51.65
33.70 36.90 40.79 44.45 44.77 44.14 42.45 43.59 44.12 42.26 41.95 41.19 42.43 41.89 41.93 40.81 42.42 47.03 50.46 50.71 51.35 52.30 56.07 57.03 57.37 54.86 54.14 55.93 54.76 55.83 57.63 58.05 58.14 57.17 56.48 57.82 56.75 55.08 55.48 54.23 53.42 54.70 55.63 55.49 55.17 55.14 54.33 54.16 54.16 54.16 53.84 54.27 54.08 53.64
36.92 41.05 38.79 41.49 42.36 43.86 42.68 43.66 43.54 43.37 44.72 47.79 48.02 44.81 44.68 45.26 46.34 53.52 52.07 53.60 54.47 55.92 56.74 57.08 58.06 56.67 56.13 56.34 56.48 56.23 56.01 57.32 58.03 57.83 57.04 55.51 55.57 57.79 57.70 57.39 57.19 47.50 54.12 56.31 54.18 54.93 54.37 54.33 54.51 54.61 54.64 53.78 53.29 54.36
39.11 44.22 44.03 40.04 40.76 43.22 43.15 46.35 47.34 50.17 52.46 51.29 48.15 47.29 48.74 52.49 54.87 54.75 55.55 55.73 57.07 56.14 54.86 54.02 54.32 57.25 55.58 57.10 57.73 56.83 56.48 55.51 54.64 53.04 52.38 51.53 51.80 53.74 56.34 56.73 55.88 56.62 58.46 56.30 49.21 50.46 54.36 53.46 53.95 53.78 54.33 54.60 54.68 54.60
48.10 47.55 46.45 44.40 44.92 46.28 49.36 51.75 51.11 53.11 53.28 53.13 53.07 52.52 52.53 52.81 52.99 55.76 55.51 55.54 54.45 53.68 54.55 53.11 53.92 54.96 54.04 52.97 53.75 55.29 55.56 55.93 56.41 54.42 52.83 52.05 53.27 55.72 55.37 55.98 56.56 56.62 56.70 55.25 55.91 56.35 48.39 50.13 51.48 54.49 54.13 54.70 53.94 54.20
52.62 52.00 50.02 49.86 48.51 50.30 52.97 53.60 54.60 54.38 53.97 53.03 53.58 51.69 50.67 51.67 52.90 54.52 54.73 54.46 55.11 54.44 53.34 53.95 53.27 53.29 55.15 53.98 53.68 54.19 52.28 54.29 55.78 56.44 57.51 56.32 57.28 56.66 56.10 56.97 56.97 55.60 55.92 56.35 55.95 56.10 55.42 53.64 53.42 52.78 53.88 53.75 53.36 52.18
51.56 49.51 48.38 47.04 48.94 53.02 53.93 52.11 51.64 50.88 51.39 50.72 50.69 52.22 50.78 49.64 47.39 50.76 54.69 54.99 53.66 54.97 51.51 54.66 54.42 53.95 54.85 56.59 54.60 54.62 48.83 54.92 55.63 57.83 57.29 55.17 54.74 54.48 54.60 55.43 55.77 55.88 55.73 55.52 55.29 54.70 54.61 53.39 52.51 52.73 53.07 53.14 52.81 51.95
50.46 49.57 50.04 49.56 50.11 49.74 51.14 50.91 50.01 49.20 50.16 49.65 49.88 51.07 50.64 51.24 47.84 53.97 56.70 57.07 54.83 53.63 55.94 56.79 58.19 56.20 57.89 58.06 55.79 54.18 51.62 53.88 47.50 41.94 42.13 41.33 39.82 42.07 49.15 52.12 53.10 54.50 53.75 53.52 52.58 51.63 50.84 50.08 49.20 48.66 48.09 48.66 49.14 48.53
MSLP
1017.21 1017.69 1017.64 1017.67 1017.83 1017.86 1017.74 1017.67 1017.86 1017.93 1018.02 1018.33 1018.71 1019.07 1019.44 1019.63 1019.84 1019.90 1018.53 1017.34 1017.26 1016.22 1014.16 1013.55 1013.04 1012.58 1011.90 1011.26 1010.76 1009.98 1009.03 1008.40 1008.30 1008.35 1009.84 1009.98 1009.30 1008.49 1008.36 1008.28 1008.67 1007.98 1007.25 1007.16 1006.44 1005.53 1005.22 1004.38 1005.14 1005.48 1006.26 1005.88 1006.43 1005.99
1016.65 1017.12 1017.40 1017.30 1017.37 1017.43 1017.47 1017.38 1017.46 1017.51 1017.81 1018.05 1018.40 1018.78 1019.18 1019.43 1019.60 1019.80 1018.81 1016.88 1016.43 1015.97 1014.16 1012.86 1012.08 1011.63 1011.58 1011.16 1011.30 1010.50 1010.43 1010.29 1010.12 1010.04 1010.49 1010.99 1010.82 1010.31 1010.71 1010.20 1010.14 1010.07 1010.12 1009.76 1009.68 1009.13 1007.83 1006.13 1006.38 1006.13 1006.47 1006.34 1005.55 1006.00
1016.24 1016.60 1016.98 1017.01 1016.98 1016.99 1016.97 1017.03 1017.15 1017.26 1017.50 1017.82 1018.20 1018.57 1018.96 1019.20 1019.42 1019.68 1019.02 1017.97 1017.06 1015.46 1013.29 1011.41 1009.99 1009.13 1009.16 1009.32 1009.77 1010.46 1009.70 1009.77 1009.80 1009.68 1009.60 1010.29 1011.02 1011.14 1010.92 1010.59 1010.34 1010.67 1009.89 1010.07 1009.93 1009.54 1008.62 1007.21 1007.34 1007.07 1006.48 1006.84 1007.13 1007.59
1015.71 1016.04 1016.59 1016.48 1016.66 1016.69 1016.56 1016.67 1016.79 1016.98 1017.26 1017.53 1018.03 1018.37 1018.73 1019.02 1019.23 1019.52 1019.05 1018.04 1017.61 1016.10 1014.25 1010.57 1009.18 1008.92 1008.07 1007.75 1008.18 1008.53 1008.60 1008.84 1008.75 1008.97 1009.18 1009.04 1009.36 1010.00 1009.38 1008.99 1009.15 1009.68 1010.72 1010.63 1010.34 1009.14 1008.07 1008.42 1008.92 1007.92 1007.49 1007.22 1007.23 1007.27
1015.09 1015.54 1016.02 1016.00 1016.29 1016.39 1016.33 1016.33 1016.51 1016.71 1017.12 1017.46 1017.87 1018.25 1018.59 1018.88 1019.09 1019.19 1018.61 1017.65 1017.15 1017.17 1015.13 1012.61 1010.47 1007.82 1007.43 1007.14 1007.18 1007.32 1007.71 1008.20 1008.59 1008.69 1008.30 1008.14 1007.75 1008.60 1007.98 1008.38 1009.45 1009.60 1009.78 1009.74 1009.50 1009.88 1010.03 1010.25 1009.37 1008.25 1007.61 1007.27 1007.12 1007.43
1014.87 1015.30 1015.50 1015.70 1015.92 1016.05 1016.10 1016.14 1016.29 1016.48 1016.78 1017.24 1017.73 1018.18 1018.55 1018.81 1019.05 1018.92 1017.72 1016.39 1016.64 1015.96 1015.75 1013.30 1009.83 1007.89 1006.93 1006.61 1006.95 1007.24 1007.51 1007.87 1008.28 1008.16 1007.87 1007.20 1006.49 1006.89 1007.37 1008.16 1009.39 1009.44 1009.14 1008.60 1008.80 1009.01 1008.33 1008.11 1008.29 1007.91 1007.58 1007.30 1006.89 1007.07
1014.61 1014.87 1015.20 1015.51 1015.62 1015.74 1015.83 1015.88 1016.19 1016.39 1016.64 1017.22 1017.71 1018.18 1018.59 1018.82 1018.86 1018.43 1018.10 1017.05 1016.75 1017.04 1015.90 1013.38 1010.32 1007.16 1006.35 1006.55 1006.86 1007.14 1007.25 1007.39 1007.52 1007.55 1007.23 1007.04 1006.40 1006.24 1006.60 1007.83 1009.05 1008.89 1008.57 1008.49 1007.73 1008.00 1008.05 1008.01 1007.61 1007.22 1006.72 1006.29 1006.33 1007.06
1014.25 1014.65 1015.00 1015.28 1015.33 1015.55 1015.61 1015.78 1015.99 1016.29 1016.66 1017.25 1017.77 1018.32 1018.71 1018.86 1018.79 1018.05 1016.07 1016.03 1016.93 1016.99 1015.54 1013.46 1010.51 1007.93 1006.08 1006.47 1006.87 1006.67 1006.99 1007.02 1006.88 1006.87 1006.48 1006.43 1006.02 1005.72 1006.40 1007.08 1007.68 1007.41 1007.43 1007.60 1006.91 1006.58 1006.43 1006.57 1007.06 1007.12 1006.84 1007.00 1007.38 1007.80
1013.84 1014.34 1014.82 1015.12 1015.16 1015.31 1015.50 1015.68 1015.79 1016.14 1016.76 1017.47 1018.04 1018.46 1018.65 1018.71 1017.54 1016.10 1015.78 1015.69 1016.22 1016.66 1015.18 1012.67 1010.96 1008.87 1007.64 1007.02 1006.48 1006.25 1006.20 1006.29 1005.74 1005.88 1005.73 1005.93 1005.48 1005.59 1005.38 1006.15 1006.62 1006.99 1007.34 1006.23 1005.75 1005.78 1006.48 1007.04 1007.44 1007.44 1007.46 1007.79 1008.28 1008.83
1013.75 1014.11 1014.57 1015.04 1015.08 1015.17 1015.39 1015.52 1015.69 1016.20 1016.95 1017.74 1018.16 1018.33 1017.62 1016.45 1015.86 1016.01 1016.01 1015.94 1015.99 1015.16 1014.59 1012.60 1011.24 1010.07 1009.55 1008.62 1007.39 1006.40 1005.87 1005.78 1005.33 1004.90 1004.55 1005.09 1005.34 1004.91 1005.07 1005.42 1005.60 1005.66 1005.62 1005.72 1005.78 1005.87 1006.32 1007.11 1007.57 1007.96 1008.08 1008.74 1009.17 1009.64
1013.61 1013.87 1014.55 1014.88 1014.95 1015.05 1015.16 1015.46 1015.92 1016.60 1017.45 1017.85 1017.65 1017.23 1016.07 1015.84 1015.77 1015.24 1014.61 1014.35 1013.43 1012.66 1011.72 1010.69 1010.40 1010.13 1009.59 1009.19 1008.97 1007.36 1006.22 1005.49 1004.98 1004.53 1004.54 1004.84 1005.39 1005.39 1005.13 1005.38 1005.34 1005.38 1005.47 1005.50 1005.54 1005.82 1006.17 1007.12 1007.87 1008.29 1008.74 1009.21 1009.62 1010.08
1013.41 1013.99 1014.45 1014.72 1014.86 1014.96 1015.14 1015.55 1015.89 1016.13 1016.61 1016.79 1016.77 1016.42 1015.87 1015.54 1015.01 1014.36 1013.26 1012.27 1011.23 1010.15 1009.03 1008.99 1009.29 1009.64 1009.21 1008.88 1008.79 1007.06 1006.31 1005.79 1005.15 1004.82 1005.18 1005.59 1006.05 1005.31 1005.15 1005.29 1005.33 1005.43 1005.37 1005.35 1005.42 1005.78 1006.21 1007.13 1007.73 1008.11 1008.56 1009.04 1009.59 1009.90
1013.50 1013.97 1014.32 1014.64 1014.78 1014.96 1015.20 1015.62 1015.73 1015.72 1016.23 1016.69 1016.62 1016.42 1016.00 1015.24 1014.29 1013.23 1011.57 1010.33 1009.24 1008.30 1008.00 1008.22 1008.66 1008.57 1008.31 1007.97 1007.88 1007.68 1007.28 1005.90 1005.58 1005.55 1005.59 1005.69 1005.89 1005.46 1005.43 1005.39 1005.57 1005.57 1005.76 1006.12 1006.39 1006.61 1007.28 1007.89 1008.51 1009.54 1009.85 1010.50 1009.46 1009.45
1013.57 1013.97 1014.32 1014.58 1014.81 1015.00 1015.19 1015.58 1016.01 1016.11 1016.28 1016.60 1016.33 1015.95 1015.16 1013.54 1012.05 1010.76 1009.67 1008.43 1007.90 1007.52 1007.40 1007.74 1008.19 1008.31 1007.61 1007.57 1008.35 1009.24 1008.64 1007.27 1005.79 1006.07 1005.84 1006.06 1006.14 1005.99 1006.05 1006.11 1006.16 1006.39 1006.60 1006.99 1007.38 1007.68 1008.48 1008.99 1009.77 1009.63 1009.49 1010.88 1011.01 1009.97
1013.55 1013.93 1014.28 1014.57 1014.78 1014.96 1015.19 1015.92 1016.40 1016.52 1016.31 1015.96 1014.90 1013.88 1012.69 1011.23 1009.92 1009.18 1008.55 1007.90 1007.39 1007.15 1007.30 1007.64 1008.08 1008.34 1008.30 1007.89 1008.06 1008.79 1008.81 1006.91 1005.36 1005.64 1006.17 1006.38 1006.49 1006.67 1006.63 1006.84 1007.10 1007.08 1007.33 1007.55 1007.97 1008.18 1008.81 1009.35 1009.98 1010.50 1010.64 1011.06 1011.00 1010.89
1013.56 1013.99 1014.09 1014.15 1014.62 1014.90 1015.52 1016.25 1016.62 1016.64 1016.38 1015.72 1014.11 1012.52 1010.94 1010.06 1009.40 1008.56 1007.88 1007.78 1007.21 1006.92 1007.07 1007.43 1007.92 1008.31 1008.70 1008.86 1008.81 1008.15 1007.74 1006.30 1006.12 1006.15 1006.55 1006.70 1006.93 1007.06 1007.19 1007.39 1007.51 1007.70 1007.85 1007.95 1008.11 1008.42 1008.79 1009.13 1009.55 1010.03 1010.44 1010.24 1010.95 1010.68
1013.68 1013.04 1012.99 1013.87 1014.48 1015.16 1015.67 1016.37 1016.71 1016.71 1015.84 1015.05 1013.23 1011.63 1010.90 1010.62 1009.04 1008.43 1007.90 1007.60 1006.88 1007.18 1007.37 1007.56 1007.87 1008.22 1009.03 1009.12 1008.93 1008.60 1006.98 1006.25 1005.92 1006.42 1006.80 1006.91 1007.22 1007.32 1007.46 1007.60 1007.68 1007.84 1008.00 1008.16 1008.31 1008.48 1008.69 1008.94 1009.15 1009.38 1009.82 1010.14 1010.14 1010.21
1013.00 1012.63 1013.28 1013.93 1014.76 1015.37 1016.19 1016.47 1016.39 1016.22 1015.58 1014.44 1012.97 1010.92 1010.10 1009.00 1008.51 1008.32 1007.71 1007.70 1007.52 1007.59 1007.80 1007.89 1007.90 1008.22 1008.59 1008.41 1008.35 1008.14 1007.16 1006.88 1006.59 1006.71 1006.95 1007.19 1007.37 1007.49 1007.55 1007.65 1007.62 1007.87 1008.06 1008.17 1008.27 1008.32 1008.43 1008.61 1008.87 1009.26 1009.41 1009.67 1009.91 1010.07
1012.55 1012.94 1013.68 1014.17 1014.58 1015.14 1015.85 1016.43 1016.29 1015.31 1013.76 1012.66 1011.35 1010.50 1009.72 1008.94 1008.00 1008.14 1008.06 1008.15 1008.24 1008.39 1008.74 1008.57 1008.81 1008.91 1008.77 1008.65 1008.82 1008.52 1007.60 1007.12 1007.27 1007.23 1007.17 1007.24 1007.40 1007.60 1007.67 1007.65 1007.75 1007.96 1008.20 1008.19 1008.21 1008.29 1008.23 1008.23 1008.30 1008.59 1008.84 1009.07 1009.47 1009.59
1013.48 1013.38 1013.92 1014.11 1014.54 1014.57 1015.10 1015.51 1015.12 1014.06 1012.23 1010.89 1010.51 1009.98 1009.48 1008.86 1008.32 1008.25 1008.47 1008.86 1009.06 1009.35 1009.35 1009.17 1009.12 1009.58 1010.00 1009.84 1009.64 1009.19 1008.99 1007.87 1007.36 1007.84 1007.96 1007.89 1007.82 1007.78 1007.68 1007.67 1007.88 1007.95 1008.01 1008.02 1008.03 1007.97 1007.85 1007.98 1007.99 1008.09 1008.27 1008.45 1008.52 1008.72
1013.80 1014.18 1014.66 1014.88 1014.61 1014.40 1013.52 1013.35 1013.12 1012.23 1011.40 1010.32 1009.36 1009.40 1008.96 1008.47 1008.38 1008.62 1008.74 1009.16 1009.53 1009.75 1009.74 1009.99 1010.09 1010.26 1010.68 1010.67 1010.13 1010.20 1008.97 1009.10 1007.91 1007.76 1007.97 1007.87 1007.74 1007.56 1007.64 1007.64 1007.68 1007.87 1008.05 1008.07 1007.89 1007.92 1007.97 1008.00 1007.76 1007.96 1008.46 1008.52 1008.30 1008.20
1013.66 1014.38 1014.78 1015.25 1014.82 1013.91 1013.32 1012.42 1011.65 1010.62 1010.52 1009.64 1009.44 1009.31 1009.05 1009.00 1009.07 1009.34 1009.29 1009.50 1010.12 1010.41 1010.91 1010.92 1010.56 1010.85 1010.58 1010.83 1010.31 1009.14 1008.34 1008.33 1007.98 1007.81 1007.71 1007.77 1007.80 1007.55 1007.49 1007.42 1007.81 1008.06 1008.05 1008.02 1007.86 1007.88 1007.95 1007.95 1007.96 1007.97 1007.82 1007.91 1008.08 1008.10
1013.85 1014.42 1015.00 1015.04 1014.74 1014.04 1012.89 1011.62 1011.20 1010.31 1009.82 1009.87 1009.85 1009.67 1009.56 1009.79 1009.98 1010.18 1010.17 1010.19 1010.45 1011.10 1011.28 1011.16 1010.96 1010.95 1011.06 1011.03 1010.77 1009.00 1008.41 1008.10 1007.85 1007.74 1007.65 1007.53 1007.64 1007.60 1007.59 1007.78 1007.84 1007.83 1007.83 1007.83 1007.76 1007.81 1007.88 1007.89 1007.88 1007.92 1007.62 1007.61 1007.73 1007.99
1013.86 1014.34 1014.22 1014.23 1013.90 1013.01 1012.11 1011.24 1010.76 1010.56 1010.45 1010.26 1010.17 1010.09 1010.14 1010.33 1010.58 1010.45 1010.43 1010.69 1010.31 1010.35 1010.39 1010.72 1010.10 1010.93 1011.02 1010.93 1010.39 1008.71 1008.15 1007.80 1007.52 1007.33 1007.20 1007.25 1007.64 1007.92 1008.03 1008.07 1007.87 1007.74 1007.69 1007.65 1007.83 1007.86 1007.81 1007.72 1007.60 1007.53 1007.46 1007.62 1008.28 1008.51
1014.06 1013.83 1013.63 1013.36 1012.95 1012.51 1011.46 1010.86 1010.74 1010.65 1010.41 1010.60 1010.46 1010.14 1010.37 1010.62 1010.60 1010.69 1010.38 1010.32 1010.61 1009.99 1009.75 1010.47 1010.51 1010.72 1010.71 1009.66 1008.00 1007.97 1007.58 1007.34 1007.15 1007.48 1007.49 1007.54 1007.81 1008.04 1008.13 1007.95 1007.80 1007.69 1007.54 1007.69 1007.81 1007.70 1007.63 1007.50 1007.46 1007.50 1007.63 1007.92 1008.08 1008.26
1013.33 1012.92 1012.98 1012.28 1012.18 1011.68 1010.76 1010.39 1010.46 1010.37 1010.32 1010.18 1010.12 1010.06 1010.32 1010.12 1009.89 1009.83 1009.71 1009.95 1009.98 1009.67 1009.29 1008.83 1008.61 1008.46 1008.20 1007.88 1007.81 1007.47 1007.28 1007.19 1007.32 1007.60 1007.88 1007.78 1007.99 1008.25 1008.35 1008.36 1008.23 1007.89 1007.38 1007.42 1007.36 1007.48 1007.50 1007.40 1007.34 1007.26 1007.31 1007.47 1007.83 1007.94
1013.38 1012.74 1012.52 1012.30 1011.60 1011.08 1010.62 1010.25 1009.97 1009.62 1008.92 1008.67 1009.09 1009.80 1009.81 1009.25 1008.84 1008.88 1009.09 1009.16 1008.85 1008.19 1007.94 1007.25 1007.29 1007.40 1007.45 1007.53 1007.56 1007.41 1007.37 1007.51 1007.64 1007.84 1008.06 1008.19 1008.26 1008.35 1008.37 1008.46 1008.52 1008.68 1008.08 1007.77 1007.88 1007.69 1007.55 1007.32 1007.16 1007.09 1006.94 1006.78 1006.94 1006.96
1012.82 1011.76 1011.35 1011.44 1011.27 1010.74 1009.65 1008.79 1008.31 1007.42 1007.47 1007.24 1006.86 1007.24 1007.02 1006.83 1008.07 1008.19 1008.11 1007.98 1007.64 1007.25 1007.28 1007.33 1007.35 1007.45 1007.53 1007.63 1007.53 1007.60 1007.71 1007.86 1007.98 1007.93 1008.10 1008.29 1008.20 1008.08 1008.36 1008.61 1008.52 1008.07 1008.38 1008.29 1008.26 1007.91 1008.02 1007.96 1007.37 1006.64 1006.58 1006.58 1006.62 1006.20
1010.58 1010.02 1010.16 1010.14 1010.37 1009.75 1008.70 1007.01 1005.95 1004.83 1004.36 1004.56 1005.04 1005.74 1006.70 1007.06 1007.30 1007.53 1007.50 1007.16 1007.38 1007.66 1008.07 1008.27 1008.14 1007.90 1007.77 1007.65 1007.67 1007.72 1007.91 1008.18 1008.29 1008.36 1008.56 1009.04 1009.41 1009.38 1009.19 1008.67 1008.19 1008.43 1008.38 1008.29 1008.05 1007.64 1007.60 1007.52 1007.03 1007.04 1006.69 1006.38 1006.01 1005.66
1006.95 1008.07 1007.73 1008.28 1007.46 1006.46 1005.22 1005.16 1004.58 1004.61 1004.90 1005.11 1005.65 1006.49 1007.33 1008.39 1009.17 1008.67 1008.54 1008.58 1008.56 1008.53 1009.06 1009.22 1008.98 1008.69 1008.42 1008.38 1008.26 1008.18 1008.16 1008.32 1008.40 1008.80 1009.02 1009.13 1009.67 1009.56 1009.10 1009.09 1008.52 1008.03 1007.54 1007.29 1007.43 1007.20 1006.89 1006.86 1006.73 1006.43 1006.39 1006.02 1006.04 1006.30
1005.11 1005.46 1005.84 1006.14 1006.08 1005.64 1005.38 1005.44 1005.48 1005.68 1005.99 1006.24 1006.74 1007.60 1008.68 1009.14 1010.01 1010.77 1010.67 1010.65 1010.26 1009.85 1009.84 1010.03 1009.89 1009.74 1009.42 1009.07 1009.03 1008.75 1009.15 1009.19 1009.05 1008.86 1008.83 1008.81 1008.83 1008.89 1008.90 1008.52 1008.06 1007.72 1007.42 1007.33 1007.06 1006.75 1006.62 1006.30 1006.41 1006.04 1006.14 1007.09 1006.74 1006.63
1005.60 1006.18 1006.54 1006.91 1007.06 1006.81 1006.47 1006.54 1006.70 1007.02 1007.46 1007.70 1008.23 1008.80 1009.63 1010.43 1011.43 1012.27 1012.13 1011.28 1010.96 1010.86 1010.74 1010.45 1010.20 1010.08 1009.69 1009.42 1009.43 1009.16 1009.17 1008.86 1008.95 1008.98 1009.21 1009.22 1009.03 1008.83 1008.27 1007.66 1007.31 1007.13 1006.87 1006.76 1006.67 1006.55 1006.27 1006.41 1006.32 1006.19 1006.13 1006.15 1006.13 1006.16
1006.81 1007.12 1007.39 1007.52 1007.57 1007.40 1007.26 1007.30 1007.56 1007.94 1008.27 1008.72 1009.14 1009.46 1010.13 1010.71 1011.87 1012.47 1012.22 1012.14 1011.91 1011.44 1011.02 1010.48 1010.14 1009.96 1009.66 1009.30 1009.38 1009.22 1009.34 1009.62 1009.66 1009.59 1009.54 1009.40 1009.17 1008.98 1008.67 1008.35 1008.09 1007.74 1007.29 1007.13 1007.13 1007.02 1006.88 1006.84 1006.73 1006.67 1006.57 1006.38 1006.28 1006.23
Wind_Speed
14 13 11 9 9 9 9 9 10 9 10 13 12 11 10 7 4 2 8 9 4 5 13 13 15 12 10 7 5 10 8 8 5 5 7 5 4 5 6 3 7 7 6 6 7 3 2 7 4 5 4 5 10 9
15 13 10 8 8 9 9 9 9 8 9 13 12 11 10 8 5 1 5 6 7 5 12 22 24 22 20 19 7 4 2 0 2 5 4 1 3 6 2 5 5 2 4 4 3 3 7 11 10 9 7 5 8 9
14 12 10 9 8 8 7 8 9 8 10 13 12 12 10 8 5 3 5 5 5 6 12 9 11 16 15 19 16 5 2 4 2 4 4 4 2 4 1 5 3 1 4 2 2 7 7 6 8 7 8 8 6 6
15 12 10 7 7 7 5 6 8 9 11 13 12 11 9 7 5 3 4 5 6 5 5 8 13 10 15 9 18 14 14 4 4 2 3 3 3 5 3 4 2 3 4 4 4 8 4 20 16 6 5 7 7 6
14 13 10 6 5 5 5 6 7 8 11 12 12 11 9 7 5 6 7 6 8 4 5 11 20 19 11 8 8 7 5 3 2 3 2 4 2 4 5 5 1 5 4 1 1 7 10 7 8 8 6 5 6 5
13 12 10 6 4 4 4 5 6 7 12 13 12 10 9 6 3 5 4 3 3 4 2 6 6 10 11 4 8 5 3 3 3 3 4 4 5 2 0 2 1 1 5 3 4 12 7 8 15 8 3 2 5 3
12 12 10 7 4 3 3 4 6 7 12 12 12 10 8 5 3 4 4 3 8 6 3 6 6 6 9 5 3 3 4 4 3 3 3 4 6 1 2 3 8 10 7 10 8 5 6 12 5 5 6 2 3 2
12 11 10 8 4 2 3 4 7 8 12 13 12 9 6 2 7 6 6 15 4 4 4 4 6 5 3 3 3 5 4 4 4 5 3 4 5 3 1 13 17 13 12 10 5 9 6 6 2 9 11 11 10 6
12 11 8 6 4 3 3 5 8 12 16 15 12 9 3 3 4 1 5 9 3 2 4 4 4 4 6 4 4 3 4 2 5 4 4 2 3 2 4 15 13 15 13 3 2 6 8 11 8 8 9 11 9 10
11 11 8 6 4 2 3 6 14 20 20 16 3 2 3 4 8 4 1 3 5 5 5 5 2 6 3 4 5 3 4 4 2 6 3 4 4 3 10 8 7 5 4 4 4 1 4 8 7 6 8 7 7 5
13 10 9 7 4 3 4 14 21 22 10 1 3 4 2 1 3 4 3 5 6 5 6 5 7 4 3 1 4 4 1 3 3 4 2 3 2 4 8 8 4 3 3 4 1 4 5 13 9 7 7 7 7 5
11 11 9 7 5 4 11 23 25 7 4 5 2 3 3 3 4 4 4 4 5 6 4 6 5 5 4 2 7 4 1 0 4 2 3 4 3 3 8 8 5 2 2 2 6 5 7 9 7 7 7 7 6 6
11 10 9 7 5 3 19 25 17 14 6 2 1 2 0 4 1 7 6 6 4 4 3 3 3 4 4 5 1 4 4 4 1 1 4 1 3 5 6 5 6 4 9 16 16 14 16 11 11 12 13 17 3 5
11 10 8 6 4 2 22 24 9 4 0 3 4 4 6 6 7 7 8 6 5 4 3 3 2 2 3 2 5 2 5 8 4 2 2 5 4 5 4 6 8 10 12 11 8 10 11 10 6 10 15 8 13 4
11 9 7 5 6 3 19 17 8 1 1 4 5 5 9 8 8 7 9 8 1 3 1 2 2 2 3 2 4 4 6 8 3 3 3 5 6 5 7 8 7 7 7 7 6 6 7 7 8 6 9 3 5 9
10 6 6 9 11 5 18 9 3 2 1 3 5 5 7 7 8 9 2 3 6 2 2 3 1 2 3 2 3 3 2 4 3 4 5 5 6 6 6 7 7 6 6 6 6 5 5 4 4 6 5 7 13 6
12 4 17 13 12 20 15 4 2 4 1 3 6 5 9 8 5 4 3 7 5 1 1 2 3 2 3 2 2 6 6 3 7 6 4 6 6 6 7 6 6 4 4 3 2 3 2 2 2 3 5 6 6 6
4 6 18 21 15 9 2 2 1 3 6 8 6 8 6 7 1 6 2 4 2 2 1 3 3 3 3 3 5 4 4 4 3 6 6 6 5 5 4 6 3 3 2 4 2 2 4 4 3 4 5 6 6 5
4 12 23 20 7 4 3 1 1 5 9 5 8 7 5 8 2 2 3 4 5 4 3 3 2 5 3 2 2 3 6 1 3 4 5 6 6 5 5 4 2 3 3 2 2 4 3 4 3 3 4 5 5 5
6 24 22 15 0 3 5 4 4 5 4 5 6 9 8 7 3 2 3 2 2 2 3 3 4 2 2 4 3 6 8 4 3 5 4 2 3 5 3 3 4 3 3 6 5 7 5 3 4 5 4 4 3 3
9 10 10 2 1 3 2 6 5 4 4 4 6 9 6 5 3 4 5 2 2 3 4 2 3 4 2 5 2 6 9 12 1 2 3 1 2 4 4 4 4 2 2 2 3 4 2 3 3 3 2 4 3 4
5 9 3 1 2 4 3 4 4 3 5 4 3 2 3 3 3 2 4 1 0 3 3 2 1 3 3 6 11 3 4 6 3 2 2 2 3 3 2 1 2 3 2 2 1 1 2 3 2 1 3 4 3 3
9 3 2 3 5 4 6 3 5 3 2 2 2 2 2 1 1 3 2 1 2 2 4 3 1 2 2 9 17 5 3 4 2 2 2 1 4 4 4 4 3 2 1 2 3 3 2 1 1 4 3 3 4 3
5 5 3 4 7 4 3 3 3 2 2 1 1 2 2 0 2 1 3 3 0 3 6 7 3 7 9 12 13 6 5 4 4 3 1 1 3 4 4 3 2 3 2 1 1 3 4 3 3 4 3 1 6 5
3 4 4 2 2 4 4 5 2 1 3 3 3 1 2 1 2 1 3 2 1 4 4 7 8 8 8 11 4 4 6 4 2 5 3 4 4 4 3 3 3 3 3 2 1 4 3 3 5 4 3 4 6 8
2 4 4 7 4 5 4 5 6 5 2 4 5 2 2 2 2 3 2 3 4 6 8 8 8 6 2 0 2 3 3 5 5 6 3 3 2 2 1 3 4 5 2 1 1 1 3 1 1 1 2 7 11 8
3 6 4 2 2 2 2 1 2 3 6 7 5 4 1 4 3 2 1 1 3 5 7 3 1 2 1 3 3 4 4 4 5 3 0 3 3 2 2 2 4 3 5 8 7 6 6 5 4 4 5 4 5 6
6 4 8 8 3 3 5 6 8 4 3 3 4 11 6 3 3 1 2 6 6 3 4 6 4 5 5 4 4 4 4 5 3 3 3 3 1 2 4 2 3 9 7 6 6 7 8 10 8 8 7 5 6 6
7 4 4 6 4 4 5 5 6 3 7 8 11 12 13 8 5 3 3 4 6 7 6 4 3 3 3 4 3 4 4 3 1 4 8 7 6 7 7 5 3 4 3 2 8 3 7 9 9 8 11 10 7 7
17 19 13 16 8 12 6 6 3 8 9 10 11 12 12 12 12 14 13 10 5 5 9 3 4 8 5 4 3 1 3 3 3 4 2 1 3 3 7 8 5 6 4 6 7 9 12 6 7 5 7 3 8 13
7 11 14 12 10 8 12 12 12 12 12 11 10 11 9 4 9 11 11 8 9 8 9 8 5 6 7 6 6 8 5 2 2 4 2 1 5 5 5 8 8 5 5 6 8 9 10 3 4 6 4 3 3 1
9 12 11 16 12 10 11 10 10 11 10 9 11 10 7 6 5 9 9 9 9 6 3 3 4 2 4 4 1 4 6 4 3 0 3 7 6 7 8 8 9 9 9 7 4 6 9 10 9 12 11 11 8 8
9 9 8 5 3 3 6 6 9 9 10 10 7 8 7 5 6 2 3 4 2 4 3 1 3 2 2 4 7 7 6 5 6 8 7 8 9 8 6 6 6 8 9 8 10 11 13 14 12 14 13 13 11 11
Wind_Direction
218 230 234 245 262 268 278 261 239 237 220 201 194 197 205 218 240 286 282 279 253 267 284 269 294 292 315 315 327 329 327 7 326 46 23 337 347 356 12 53 338 355 330 20 346 321 298 328 121 68 162 91 141 111
214 223 235 242 260 265 274 262 229 229 214 195 189 193 200 214 225 268 274 319 333 251 285 293 280 267 251 256 283 290 260 238 320 351 164 183 355 1 339 319 342 75 3 315 43 347 308 39 82 105 108 96 50 62
210 216 228 245 258 256 265 243 235 221 208 191 186 189 198 208 215 227 302 320 301 279 289 257 258 266 238 226 218 230 202 182 190 236 275 145 139 144 149 255 197 44 323 334 208 87 209 107 67 66 85 98 99 130
205 209 224 233 256 264 273 244 221 215 195 184 184 186 193 199 211 235 283 309 292 293 284 292 1 317 290 281 198 214 240 181 221 287 270 267 172 207 235 228 126 83 156 270 279 12 0 12 356 15 73 82 64 19
198 202 210 215 246 260 281 230 204 196 188 186 181 180 180 191 228 267 265 259 261 266 301 303 303 272 288 253 206 237 192 231 244 291 308 246 281 164 235 152 227 179 189 158 312 167 136 212 279 256 331 358 96 18
196 200 196 197 232 243 261 220 202 202 187 178 170 170 171 184 221 278 301 134 325 308 286 288 325 286 289 245 170 241 206 205 204 217 273 275 289 244 273 86 107 190 250 215 155 199 215 185 214 232 220 216 127 239
193 195 191 197 209 229 219 193 196 189 169 165 157 161 172 183 230 246 299 326 337 331 253 282 283 255 218 205 164 204 235 230 211 258 266 263 286 290 218 114 173 220 225 241 204 195 167 179 222 237 232 202 220 68
188 194 191 192 188 227 200 198 187 180 159 147 142 150 152 189 280 276 240 233 204 265 264 273 275 272 207 182 203 190 217 217 231 203 240 222 275 168 231 150 182 192 215 249 265 218 197 181 41 46 48 40 48 64
176 185 189 194 188 211 238 200 176 156 136 127 127 140 162 229 233 167 62 111 163 298 301 265 280 304 358 310 240 171 190 238 231 208 213 158 245 224 237 168 170 186 200 231 150 94 92 100 96 69 64 54 47 38
173 175 179 193 185 189 259 175 143 130 126 131 141 175 213 222 130 146 93 186 200 207 225 250 263 282 356 2 295 307 174 207 266 225 175 162 239 135 108 108 109 91 60 341 286 22 108 86 104 94 79 91 103 94
174 167 182 187 181 177 167 148 132 119 115 152 169 213 291 152 226 216 233 216 184 221 205 226 215 257 269 338 290 262 303 258 222 235 147 184 54 127 110 97 88 102 137 271 237 232 97 144 153 142 143 129 115 124
168 175 179 180 169 141 149 145 142 146 157 178 224 259 238 224 228 257 227 228 237 220 219 185 182 172 277 176 233 281 220 289 286 47 71 34 286 142 123 129 139 232 277 2 105 105 113 118 113 119 139 156 165 178
173 177 175 178 173 183 160 159 175 116 123 65 46 102 141 236 195 225 219 231 208 237 124 153 197 209 196 214 16 14 331 211 159 193 182 81 169 78 75 116 108 44 55 53 46 41 47 71 78 67 41 356 144 182
173 175 176 176 178 165 171 172 143 49 331 142 180 171 216 204 224 209 250 259 220 304 125 163 180 275 279 189 126 90 297 284 151 246 84 154 126 83 23 52 69 53 52 74 56 63 63 67 44 59 69 335 326 252
170 170 176 196 186 176 175 157 134 6 163 218 203 213 218 242 271 270 242 266 180 252 179 121 137 101 284 347 43 156 201 227 268 87 104 131 122 101 77 70 80 62 53 61 42 64 105 98 105 111 95 12 319 294
158 153 210 166 179 171 152 112 62 8 334 254 252 258 275 227 241 257 200 340 327 187 139 96 276 235 55 23 282 193 262 280 100 90 117 115 98 88 77 73 73 60 52 42 33 52 41 44 160 159 196 187 215 216
176 234 156 155 143 133 112 90 107 199 269 268 248 248 266 268 302 312 314 291 166 252 203 246 205 237 103 295 78 317 261 151 118 122 118 114 115 112 113 103 109 107 101 116 84 15 22 3 328 146 126 161 142 134
244 148 136 129 131 111 73 41 128 180 210 236 256 253 271 252 199 286 274 334 42 340 249 261 320 243 189 225 279 13 345 50 104 127 131 125 133 139 140 135 112 155 353 68 83 277 273 217 245 127 157 155 164 169
178 135 140 139 146 123 109 49 266 222 225 247 247 263 282 297 179 246 323 43 21 19 15 309 175 262 252 266 334 310 322 175 121 159 141 128 123 120 128 111 77 45 103 270 277 279 283 257 177 157 170 160 180 198
254 145 156 160 267 149 145 170 212 262 262 214 231 257 260 255 272 337 54 50 39 337 244 236 251 59 347 352 345 2 316 13 138 161 141 120 180 158 168 149 156 199 257 277 272 255 248 292 185 183 198 189 175 183
160 159 147 53 246 248 227 168 192 227 265 260 222 221 245 245 250 269 258 262 187 238 234 32 36 10 339 334 237 202 36 310 268 106 158 169 230 180 196 222 225 226 300 11 30 360 350 272 202 141 181 249 228 227
98 125 105 74 309 295 270 235 239 222 199 260 354 293 290 330 317 297 322 158 225 189 3 353 168 216 334 12 291 272 177 271 300 113 142 179 256 257 253 167 64 83 145 290 266 358 328 65 66 228 215 232 223 270
116 89 100 181 215 209 255 220 220 250 211 164 209 242 198 188 16 36 27 12 180 166 204 190 273 81 249 281 293 256 269 283 288 195 200 270 70 32 42 48 22 342 27 22 346 358 31 222 276 279 295 186 216 233
116 158 150 212 197 235 273 208 205 177 129 212 196 236 204 102 349 203 56 297 339 193 176 190 168 200 254 275 269 246 239 252 281 307 146 176 100 51 31 355 352 -0 6 294 246 275 280 255 307 275 320 83 44 8
121 211 152 266 146 210 194 157 139 215 187 184 239 226 139 195 89 263 228 118 348 258 289 124 201 221 232 253 206 192 251 262 89 92 45 60 60 39 10 6 13 290 264 257 340 343 320 293 289 294 146 127 148 143
171 197 166 194 168 212 192 169 185 188 181 182 220 54 21 249 259 326 273 150 177 225 260 220 187 178 151 115 211 212 50 51 55 81 37 35 72 122 324 339 325 331 327 33 270 293 280 355 305 263 167 189 194 214
216 196 198 262 282 148 212 270 165 197 202 201 153 132 187 216 167 153 280 296 187 234 224 149 85 32 72 47 73 84 60 56 47 102 5 59 67 46 69 16 25 326 352 14 1 344 322 310 297 258 260 235 234 242
237 241 194 173 182 203 269 188 187 212 320 243 204 180 188 98 105 170 185 195 206 93 48 43 27 32 24 11 347 55 69 92 113 88 58 79 157 269 64 47 283 14 12 359 18 6 344 326 282 256 269 262 262 276
205 209 191 168 218 227 244 231 212 226 104 89 88 88 99 104 125 133 182 96 77 56 70 54 19 358 29 33 75 92 58 58 40 33 21 44 16 357 347 333 358 16 301 242 248 212 252 278 283 278 288 295 284 279
128 168 176 180 169 133 131 133 64 107 95 87 89 83 70 55 36 28 31 28 44 73 67 39 336 16 27 49 18 162 181 77 52 83 39 52 170 230 266 281 262 224 202 261 306 303 273 269 299 297 280 352 327 324
78 67 59 53 47 55 65 67 69 68 67 65 70 80 78 63 50 27 22 7 15 32 42 45 31 358 11 6 2 5 65 235 185 181 190 2 192 239 264 256 252 247 236 243 254 275 287 282 317 298 284 4 360 282
78 90 85 85 76 65 68 78 83 84 79 86 93 85 79 74 55 15 341 358 22 28 18 9 74 64 319 36 25 304 310 80 147 55 355 26 11 354 338 346 355 354 348 337 313 299 337 20 7 8 26 27 33 23
83 85 90 78 53 60 93 94 77 69 68 60 49 76 83 70 85 156 241 226 176 262 279 160 307 287 279 10 56 37 30 62 89 95 64 31 6 351 335 344 340 338 346 353 17 16 15 12 14 13 2 359 15 15